World > North America > United States > Missouri

Bernie, Missouri Regional Weather

Lat: 36.67N, Lon: 89.97W
Wx Zone: MOZ110
Feedback

Bernie, MO Regional Weather

Expires:202004041000;;550232
ASUS43 KLSX 040907
RWRMO 

WEATHER SUMMARY FOR MISSOURI
NATIONAL WEATHER SERVICE SPRINGFIELD MO
400 AM CDT SAT APR 04 2020

NOTE: "FAIR" INDICATES FEW OR NO CLOUDS BELOW 12,000 FEET WITH NO
       SIGNIFICANT WEATHER AND/OR OBSTRUCTIONS TO VISIBILITY.
       CURRENT SKY AND/OR WEATHER CONDITIONS ARE NOT AVAILABLE FOR
       CHILLICOTHE AND FARMINGTON.


MOZ072>076-082>087-097>100-106>115-041000-
...SOUTH CENTRAL AND SOUTHEAST MISSOURI...
  
CITY           SKY/WX    TMP DP  RH WIND       PRES   REMARKS
CAPE GIRARDEAU CLOUDY    50  47  89 N9        30.06S                  
FARMINGTON     CLOUDY    41  40  96 NW10      30.10S                  
POPLAR BLUFF   MOCLDY    52  47  83 N9        30.05S                  
WEST PLAINS    CLOUDY    40  36  86 N12       30.08F                  
                                       
$$
  

SKY/WX - Weather  TMP - Temperature  DP - Dew Point  RH - Relative Humidity
WIND - Wind Direction/Speed PRES - Barometric Pressure VSB - Visibility
WCI - Wind Chill Index E13G22 Wind - East Wind 13 mph/Gusts of 22 mph
Bernie Weather Map
UTC Time: 4/4/2020, 09:11
Your Time: